EN

Hourly Weather Pozdeevo

Today, 24 October, Saturday

Time Temperature Precipitation Wind Pressure Humidity
00:00 +11°C° 0 mm 4 mps 739 mmHg 86%
01:00 +11°C° 0 mm 4 mps 739 mmHg 89%
02:00 +10°C° 0 mm 3 mps 740 mmHg 91%
03:00 +10°C° 0 mm 3 mps 740 mmHg 93%
04:00 +9°C° 0 mm 3 mps 740 mmHg 94%
05:00 +9°C° 0 mm 3 mps 740 mmHg 96%
06:00 +9°C° 0 mm 3 mps 740 mmHg 94%
07:00 +9°C° 0 mm 3 mps 740 mmHg 93%
08:00 +9°C° 0 mm 3 mps 741 mmHg 92%
09:00 +10°C° 0 mm 2 mps 741 mmHg 86%
10:00 +12°C° 0 mm 2 mps 741 mmHg 79%
11:00 +14°C° 0 mm 2 mps 741 mmHg 73%
12:00 +14°C° 0 mm 2 mps 741 mmHg 72%
13:00 +13°C° 0 mm 3 mps 741 mmHg 71%
14:00 +14°C° 0 mm 3 mps 741 mmHg 70%
15:00 +13°C° 0.1 mm 3 mps 741 mmHg 76%
16:00 +12°C° 0.1 mm 3 mps 740 mmHg 83%
17:00 +11°C° 0.1 mm 3 mps 740 mmHg 89%
18:00 +11°C° 0.5 mm 3 mps 740 mmHg 91%
19:00 +11°C° 0.5 mm 3 mps 740 mmHg 93%
20:00 +11°C° 0.5 mm 3 mps 739 mmHg 96%
21:00 +11°C° 1.4 mm 3 mps 739 mmHg 95%
22:00 +11°C° 1.4 mm 4 mps 739 mmHg 95%
23:00 +10°C° 1.4 mm 5 mps 738 mmHg 95%

Tomorrow, 25 October, Sunday

Time Temperature Precipitation Wind Pressure Humidity
00:00 +10°C° 0.6 mm 5 mps 739 mmHg 94%
01:00 +10°C° 0.6 mm 6 mps 739 mmHg 93%
02:00 +10°C° 0.6 mm 6 mps 739 mmHg 91%
03:00 +10°C° 0 mm 5 mps 739 mmHg 90%
04:00 +9°C° 0 mm 5 mps 740 mmHg 89%
05:00 +8°C° 0 mm 5 mps 740 mmHg 88%
06:00 +8°C° 0 mm 5 mps 741 mmHg 88%
07:00 +8°C° 0 mm 5 mps 742 mmHg 88%
08:00 +8°C° 0 mm 5 mps 742 mmHg 88%
09:00 +9°C° 0 mm 5 mps 743 mmHg 83%
10:00 +10°C° 0 mm 5 mps 743 mmHg 77%
11:00 +10°C° 0 mm 5 mps 743 mmHg 72%
12:00 +12°C° 0 mm 5 mps 744 mmHg 72%
13:00 +12°C° 0 mm 5 mps 744 mmHg 73%
14:00 +12°C° 0 mm 4 mps 744 mmHg 73%
15:00 +11°C° 0 mm 4 mps 745 mmHg 76%
16:00 +11°C° 0 mm 3 mps 745 mmHg 79%
17:00 +10°C° 0 mm 3 mps 745 mmHg 81%
18:00 +10°C° 0 mm 3 mps 746 mmHg 81%
19:00 +10°C° 0 mm 2 mps 746 mmHg 81%
20:00 +10°C° 0 mm 2 mps 747 mmHg 80%
21:00 +11°C° 0 mm 1 mps 747 mmHg 81%
22:00 +11°C° 0 mm 1 mps 747 mmHg 81%
23:00 +11°C° 0 mm 1 mps 747 mmHg 81%

Day after tomorrow, 26 October, Monday

Time Temperature Precipitation Wind Pressure Humidity
00:00 +11°C° 0 mm 1 mps 747 mmHg 80%
01:00 +11°C° 0 mm 1 mps 748 mmHg 80%
02:00 +10°C° 0 mm 1 mps 748 mmHg 79%
03:00 +10°C° 0 mm 1 mps 748 mmHg 79%
04:00 +10°C° 0 mm 1 mps 748 mmHg 78%
05:00 +10°C° 0 mm 1 mps 748 mmHg 78%
06:00 +11°C° 0 mm 1 mps 749 mmHg 76%
07:00 +10°C° 0 mm 0 mps 749 mmHg 75%
08:00 +10°C° 0 mm 0 mps 749 mmHg 73%
09:00 +12°C° 0 mm 1 mps 749 mmHg 69%
10:00 +12°C° 0 mm 1 mps 749 mmHg 65%
11:00 +13°C° 0 mm 1 mps 749 mmHg 60%
12:00 +13°C° 0 mm 1 mps 749 mmHg 61%
13:00 +13°C° 0 mm 1 mps 749 mmHg 61%
14:00 +13°C° 0 mm 1 mps 749 mmHg 62%
15:00 +12°C° 0 mm 1 mps 749 mmHg 65%
16:00 +12°C° 0 mm 1 mps 749 mmHg 68%
17:00 +11°C° 0 mm 1 mps 749 mmHg 71%
18:00 +11°C° 0 mm 1 mps 750 mmHg 72%
19:00 +11°C° 0 mm 1 mps 750 mmHg 74%
20:00 +9°C° 0 mm 2 mps 750 mmHg 75%
21:00 +9°C° 0 mm 2 mps 750 mmHg 77%
22:00 +9°C° 0 mm 2 mps 750 mmHg 79%
23:00 +8°C° 0 mm 2 mps 750 mmHg 80%

, 27 October, Tuesday

Time Temperature Precipitation Wind Pressure Humidity
00:00 +8°C° 0 mm 2 mps 750 mmHg 81%
01:00 +8°C° 0 mm 2 mps 750 mmHg 83%
02:00 +7°C° 0 mm 3 mps 750 mmHg 84%
03:00 +7°C° 0 mm 3 mps 751 mmHg 85%
04:00 +7°C° 0 mm 3 mps 751 mmHg 86%
05:00 +5°C° 0 mm 3 mps 751 mmHg 87%
06:00 +7°C° 0 mm 3 mps 751 mmHg 86%
07:00 +7°C° 0 mm 3 mps 751 mmHg 84%
08:00 +7°C° 0 mm 3 mps 751 mmHg 83%
09:00 +7°C° 0 mm 4 mps 751 mmHg 79%
10:00 +8°C° 0 mm 4 mps 751 mmHg 74%
11:00 +10°C° 0 mm 4 mps 752 mmHg 70%
12:00 +11°C° 0 mm 4 mps 751 mmHg 69%
13:00 +11°C° 0 mm 4 mps 751 mmHg 67%
14:00 +11°C° 0 mm 4 mps 751 mmHg 65%
15:00 +10°C° 0 mm 4 mps 751 mmHg 69%
16:00 +8°C° 0 mm 4 mps 751 mmHg 73%
17:00 +8°C° 0 mm 3 mps 751 mmHg 77%
18:00 +8°C° 0 mm 3 mps 751 mmHg 78%
19:00 +7°C° 0 mm 4 mps 751 mmHg 79%
20:00 +6°C° 0 mm 4 mps 751 mmHg 79%
21:00 +6°C° 0 mm 4 mps 751 mmHg 79%
22:00 +6°C° 0 mm 4 mps 751 mmHg 79%
23:00 +6°C° 0 mm 4 mps 751 mmHg 79%

27 October, Tuesday

Time Temperature Precipitation Wind Pressure Humidity
00:00 +8°C° 0 mm 2 mps 750 mmHg 81%
01:00 +8°C° 0 mm 2 mps 750 mmHg 83%
02:00 +7°C° 0 mm 3 mps 750 mmHg 84%
03:00 +7°C° 0 mm 3 mps 751 mmHg 85%
04:00 +7°C° 0 mm 3 mps 751 mmHg 86%
05:00 +5°C° 0 mm 3 mps 751 mmHg 87%
06:00 +7°C° 0 mm 3 mps 751 mmHg 86%
07:00 +7°C° 0 mm 3 mps 751 mmHg 84%
08:00 +7°C° 0 mm 3 mps 751 mmHg 83%
09:00 +7°C° 0 mm 4 mps 751 mmHg 79%
10:00 +8°C° 0 mm 4 mps 751 mmHg 74%
11:00 +10°C° 0 mm 4 mps 752 mmHg 70%
12:00 +11°C° 0 mm 4 mps 751 mmHg 69%
13:00 +11°C° 0 mm 4 mps 751 mmHg 67%
14:00 +11°C° 0 mm 4 mps 751 mmHg 65%
15:00 +10°C° 0 mm 4 mps 751 mmHg 69%
16:00 +8°C° 0 mm 4 mps 751 mmHg 73%
17:00 +8°C° 0 mm 3 mps 751 mmHg 77%
18:00 +8°C° 0 mm 3 mps 751 mmHg 78%
19:00 +7°C° 0 mm 4 mps 751 mmHg 79%
20:00 +6°C° 0 mm 4 mps 751 mmHg 79%
21:00 +6°C° 0 mm 4 mps 751 mmHg 79%
22:00 +6°C° 0 mm 4 mps 751 mmHg 79%
23:00 +6°C° 0 mm 4 mps 751 mmHg 79%

28 October, Wednesday

Time Temperature Precipitation Wind Pressure Humidity
00:00 +5°C° 0 mm 4 mps 751 mmHg 79%
01:00 +5°C° 0 mm 4 mps 752 mmHg 79%
02:00 +5°C° 0 mm 4 mps 752 mmHg 79%
03:00 +4°C° 0 mm 4 mps 752 mmHg 80%
04:00 +4°C° 0 mm 4 mps 752 mmHg 81%
05:00 +4°C° 0 mm 4 mps 752 mmHg 82%
06:00 +4°C° 0 mm 4 mps 752 mmHg 81%
07:00 +5°C° 0 mm 4 mps 752 mmHg 80%
08:00 +5°C° 0 mm 5 mps 752 mmHg 79%
09:00 +6°C° 0 mm 5 mps 752 mmHg 74%
10:00 +7°C° 0 mm 5 mps 752 mmHg 68%
11:00 +9°C° 0 mm 5 mps 752 mmHg 63%
12:00 +9°C° 0 mm 5 mps 752 mmHg 60%
13:00 +10°C° 0 mm 5 mps 752 mmHg 57%
14:00 +10°C° 0 mm 5 mps 752 mmHg 54%
15:00 +9°C° 0 mm 5 mps 751 mmHg 58%
16:00 +8°C° 0 mm 4 mps 751 mmHg 61%
17:00 +7°C° 0 mm 4 mps 751 mmHg 64%
18:00 +6°C° 0 mm 4 mps 751 mmHg 63%
19:00 +6°C° 0 mm 4 mps 751 mmHg 61%
20:00 +5°C° 0 mm 4 mps 751 mmHg 60%
21:00 +5°C° 0 mm 4 mps 751 mmHg 56%
22:00 +4°C° 0 mm 4 mps 751 mmHg 53%
23:00 +4°C° 0 mm 4 mps 751 mmHg 49%

29 October, Thursday

Time Temperature Precipitation Wind Pressure Humidity
00:00 +3°C° 0 mm 4 mps 751 mmHg 48%
01:00 +3°C° 0 mm 4 mps 751 mmHg 48%
02:00 +3°C° 0 mm 4 mps 751 mmHg 48%
03:00 +1°C° 0 mm 4 mps 751 mmHg 49%
04:00 +1°C° 0 mm 4 mps 751 mmHg 51%
05:00 +1°C° 0 mm 4 mps 751 mmHg 52%
06:00 +1°C° 0 mm 4 mps 750 mmHg 54%
07:00 +1°C° 0 mm 4 mps 750 mmHg 55%
08:00 +1°C° 0 mm 4 mps 750 mmHg 56%
09:00 +3°C° 0 mm 4 mps 750 mmHg 55%
10:00 +4°C° 0 mm 4 mps 750 mmHg 55%
11:00 +6°C° 0 mm 4 mps 750 mmHg 54%
12:00 +6°C° 0 mm 4 mps 750 mmHg 54%
13:00 +6°C° 0 mm 4 mps 749 mmHg 55%
14:00 +7°C° 0 mm 5 mps 749 mmHg 55%
15:00 +6°C° 0 mm 4 mps 749 mmHg 59%
16:00 +6°C° 0 mm 4 mps 749 mmHg 62%
17:00 +5°C° 0 mm 3 mps 749 mmHg 65%
18:00 +5°C° 0 mm 3 mps 749 mmHg 67%
19:00 +4°C° 0 mm 3 mps 749 mmHg 68%
20:00 +4°C° 0 mm 3 mps 748 mmHg 69%
21:00 +4°C° 0 mm 3 mps 748 mmHg 70%
22:00 +4°C° 0 mm 3 mps 748 mmHg 71%
23:00 +4°C° 0 mm 3 mps 748 mmHg 71%
Show more

We Need Your Consent

Meteoprog and our Service Providers may store and access personal data such as cookies, device identifiers or other similar technologies on your device and process such data to personalise content and ads, as well as provide social media features and to analyse the traffic.

  • Store and/or access information on your device

    Cookies, device identifiers or other information can be stored or accessed on your device for the purposes indicated above.

  • Personalised ads and content, ad and content measurement, audience insights, and products development

    Ads and content can be personalised based on a profile. More data can be added to better personalise ads and content. Ad and content performance can be measured. Insights about the audience who saw the ads and content can be derived. Such data can be used to develop or improve user’s experience, systems and software.

By clicking ‘I Agree’ you will allow the use of indicated cookies, device identifiers, web beacons or other similar technologies. Your settings can be changed in the browser on your device.

For certain purposes, legitimate interests may be relied on, rather than consent. You can read more about this in our Privacy and Cookie Policy.